Wind_Speed
11 11 12 11 11 12 14 18 19 18 20 19 19 21 23 26 25 25 24 24 24 25 26 26 26 25 25 25 25 24 22 20 19 18 18 18 18 18 18 19 19 19 19 19 19 18 17 17 16
9 8 9 10 10 11 11 15 16 18 17 18 20 22 25 28 25 26 26 26 27 27 27 27 27 26 26 26 26 24 22 21 20 20 21 21 21 22 22 22 22 22 22 22 21 19 18 17 17
8 8 8 9 12 12 16 18 16 14 16 19 20 22 24 27 26 26 27 28 28 28 28 27 27 27 27 26 25 23 22 22 22 22 23 23 23 24 24 25 24 24 24 23 22 21 19 18 17
5 6 8 10 12 14 15 13 13 15 16 17 18 21 24 25 25 25 26 27 28 28 27 28 28 28 27 26 24 23 23 23 24 24 24 24 25 25 26 26 26 25 24 24 23 22 21 20 19
5 4 6 8 11 11 13 13 13 15 16 17 18 21 25 22 25 26 26 27 28 29 28 28 29 27 26 25 25 24 25 25 26 26 26 26 26 26 26 26 26 25 25 24 24 23 22 22 20
8 7 8 8 9 11 12 13 14 16 16 19 19 21 27 24 26 27 27 28 29 30 29 27 28 27 26 27 27 27 27 28 28 28 28 27 27 27 27 27 26 25 25 25 24 24 23 22 21
9 9 9 10 11 13 14 14 16 17 19 21 19 22 30 26 25 27 29 30 30 30 30 29 28 28 28 28 28 29 29 29 29 29 29 28 28 28 27 27 26 26 26 25 24 24 23 22 22
12 12 13 13 14 16 16 17 19 18 21 21 22 25 31 28 26 28 29 30 31 31 31 32 31 29 28 29 30 30 29 28 28 27 27 27 28 27 27 27 26 27 27 26 25 24 23 23 22
13 14 16 16 17 18 18 19 20 20 22 23 25 27 31 30 28 29 30 31 32 32 32 32 32 30 29 28 27 27 27 26 25 25 25 25 26 26 26 26 26 27 27 27 26 26 25 25 25
13 15 17 16 17 18 19 20 21 22 23 26 28 30 30 27 28 29 30 31 31 29 29 30 29 28 27 27 25 24 25 25 25 25 25 25 26 26 27 26 27 28 28 29 29 29 29 29 29
11 14 15 16 17 18 19 20 22 24 25 29 29 29 30 27 26 26 26 27 28 27 26 27 27 26 26 25 25 24 24 24 25 26 26 27 28 29 30 29 30 31 32 33 33 33 34 34 34
10 12 13 14 15 16 17 20 22 25 27 28 28 27 27 26 25 25 26 28 29 28 28 28 27 27 27 26 26 26 26 26 27 27 29 29 30 32 32 33 33 34 35 36 37 37 39 40 40
13 14 15 15 15 15 16 19 21 24 24 25 26 26 26 26 27 29 29 30 31 30 30 29 29 28 28 29 29 29 29 30 31 32 33 34 34 35 36 36 36 37 37 38 38 39 40 42 43
17 18 20 19 19 18 19 23 25 25 23 25 27 28 28 28 29 30 30 29 30 30 30 30 31 31 31 32 33 33 34 35 36 37 38 39 40 41 41 41 41 41 42 42 41 41 42 43 43
20 21 23 22 21 20 22 26 30 27 25 27 28 29 29 28 28 28 28 28 29 31 31 32 33 35 36 37 38 40 41 42 42 44 45 46 47 48 48 48 48 48 47 46 46 46 46 46 46
23 23 25 25 20 20 22 27 33 30 27 28 28 27 27 25 25 26 28 30 31 33 35 37 39 41 43 44 45 47 48 48 49 50 51 52 53 53 53 53 53 54 53 52 51 51 51 50 50
24 23 23 27 25 21 23 26 31 30 29 28 27 26 26 26 28 30 32 34 36 39 41 43 45 46 48 50 51 52 53 54 55 55 55 55 56 56 57 56 57 58 57 57 56 56 55 55 54
21 22 23 24 25 22 22 25 28 26 27 28 28 30 31 33 35 37 38 40 42 44 45 47 48 50 51 53 55 56 56 57 57 57 57 57 56 57 57 57 58 59 59 59 59 59 58 58 57
19 19 20 21 21 20 20 24 29 27 28 31 34 36 38 40 41 43 43 44 45 45 47 48 50 51 53 55 56 57 57 58 58 58 58 57 57 56 56 56 57 58 59 60 60 60 60 59 59
18 19 20 21 23 23 23 27 32 32 33 35 37 39 41 43 44 44 44 45 45 46 48 51 53 55 57 58 60 61 61 62 62 62 62 61 61 60 58 57 57 58 59 59 60 60 60 60 59
22 23 25 26 28 29 31 33 35 35 36 38 40 42 43 44 45 45 46 47 49 51 54 58 61 63 65 67 68 69 69 69 68 68 68 67 66 65 64 62 61 61 60 60 60 61 61 60 60
27 28 30 32 35 36 38 40 41 42 42 43 44 45 46 47 48 50 52 54 57 60 63 67 70 72 74 76 77 77 77 77 75 74 73 72 70 69 68 67 65 64 63 62 62 63 62 61 60
31 33 35 38 40 41 42 43 45 48 49 48 48 49 51 53 56 59 62 64 66 69 72 74 77 80 82 83 84 83 82 81 79 78 76 75 73 71 70 68 67 66 65 64 63 63 63 62 62
35 37 39 42 44 46 46 46 51 53 52 54 56 58 60 63 66 68 70 72 74 76 78 80 82 83 84 85 84 83 81 78 76 74 72 72 71 70 69 68 67 66 65 63 63 62 62 62 62
38 41 42 44 45 44 46 49 53 51 56 60 64 67 70 72 73 73 75 78 79 80 81 81 80 79 78 77 75 74 72 70 68 66 65 66 68 69 68 67 66 65 63 61 59 59 60 61 62
40 42 43 45 46 47 50 51 55 57 60 65 69 73 74 74 74 75 78 79 79 79 78 76 73 70 67 66 66 65 65 63 61 59 58 59 61 63 63 62 60 59 57 55 54 55 56 58 60
40 42 44 46 49 52 53 54 57 59 66 71 74 75 75 75 75 75 76 76 75 73 69 65 64 64 63 65 66 66 64 61 57 54 53 54 56 57 55 55 55 53 51 50 51 53 54 55 57
42 44 46 49 52 55 58 57 58 65 72 75 75 76 77 76 76 76 74 72 67 62 58 58 62 65 66 67 66 63 58 55 53 52 50 50 51 52 52 52 52 52 51 49 49 49 49 49 49
45 48 50 53 55 58 62 61 64 68 71 74 76 75 75 75 74 72 68 62 55 52 53 57 60 61 61 57 52 46 44 44 46 47 46 46 47 49 51 50 50 51 50 48 46 44 43 43 44
49 51 53 56 58 59 63 67 61 66 71 72 71 69 69 69 66 61 54 48 46 48 51 54 55 53 49 43 37 34 33 34 37 40 41 42 44 46 47 48 48 49 49 45 43 42 42 42 44
Wind_Direction
255 250 243 237 234 228 230 235 242 239 233 232 231 232 235 238 242 253 258 262 265 269 274 278 281 282 283 285 286 284 277 272 269 267 266 266 266 266 267 269 271 274 275 277 279 281 283 284 286
254 251 242 229 216 216 241 242 239 238 233 234 234 237 240 243 247 254 261 265 269 272 275 277 278 278 279 281 282 279 272 268 267 268 269 269 269 268 268 269 272 273 275 277 277 278 280 281 283
256 245 232 221 213 206 232 239 237 236 234 238 242 245 249 254 254 258 263 266 269 272 273 274 275 276 278 279 278 273 269 268 268 270 272 273 273 272 271 271 272 273 274 276 277 277 278 279 280
259 244 229 220 226 229 243 245 235 240 244 248 253 256 254 259 261 262 264 266 268 269 271 273 274 276 277 277 274 273 272 273 274 274 273 273 274 274 273 272 272 272 273 275 276 277 278 278 276
269 246 233 225 234 242 245 250 246 250 254 255 258 263 262 261 264 264 264 265 267 268 270 273 275 276 276 275 275 275 276 277 278 278 276 274 273 273 273 273 273 273 275 275 276 276 276 275 272
273 264 254 247 245 251 252 255 254 256 258 259 259 264 267 263 264 265 266 267 268 271 272 272 274 274 275 276 277 277 277 278 278 278 277 275 274 272 272 272 273 274 275 275 275 275 274 272 269
277 275 272 271 268 265 263 266 264 265 264 267 271 267 268 268 271 272 272 273 273 274 274 273 272 275 275 275 276 277 277 277 277 277 276 275 274 273 272 272 273 273 273 272 272 272 272 270 267
277 276 273 270 268 269 271 271 272 274 275 275 272 271 273 279 275 276 277 277 276 276 276 276 275 273 274 276 278 279 279 279 279 278 277 276 275 274 273 272 272 271 271 271 271 270 269 267 265
276 274 273 274 274 273 273 273 274 274 274 274 273 270 271 276 278 276 276 276 276 277 278 278 278 279 278 277 278 280 282 283 282 281 280 278 276 275 274 273 272 271 271 271 270 269 268 266 265
277 277 279 281 277 277 276 272 271 270 270 270 269 270 274 277 277 277 277 278 278 278 277 278 279 281 282 282 280 279 280 282 282 282 280 278 276 275 274 274 274 273 273 271 270 269 268 266 265
291 288 289 287 285 283 280 278 275 271 268 268 271 275 279 279 278 280 281 282 283 284 282 281 281 280 279 279 279 278 276 277 277 278 279 277 276 276 275 273 272 273 273 272 271 271 269 268 266
311 305 302 298 295 292 289 284 279 274 272 274 277 278 279 282 283 284 285 285 285 284 283 281 279 277 276 275 274 275 275 275 275 276 277 277 276 275 275 274 273 271 271 271 271 271 270 269 268
320 315 310 307 306 303 298 290 282 278 282 284 283 282 283 285 286 286 286 285 284 282 281 280 278 276 274 273 272 272 273 274 275 276 276 277 276 276 275 274 272 271 270 269 269 269 269 269 269
314 311 306 304 304 301 296 289 284 284 287 286 285 286 288 290 289 287 286 284 282 281 281 280 279 277 276 275 275 274 274 274 276 277 277 277 277 276 276 274 273 271 269 269 268 267 268 269 269
306 304 300 298 297 293 290 287 286 288 288 285 285 287 289 289 287 285 284 283 282 282 281 280 280 279 278 278 277 277 276 276 276 276 277 277 276 276 276 275 274 272 270 269 268 267 266 267 268
299 298 298 300 296 293 289 286 288 292 291 289 289 289 289 288 287 286 286 286 285 285 284 283 282 282 282 281 281 280 279 279 278 277 276 276 275 275 274 274 273 272 270 269 268 266 266 265 266
301 303 304 305 306 302 293 287 288 294 295 294 293 291 290 289 288 288 287 288 287 286 285 284 284 282 282 281 280 280 279 279 278 277 275 274 273 273 272 271 271 270 270 268 267 266 265 264 264
310 310 308 304 309 310 301 294 293 297 297 296 295 294 293 292 292 292 291 291 289 288 286 284 283 282 281 280 279 278 278 277 276 276 274 273 272 271 270 270 269 269 269 268 267 265 265 264 263
325 321 318 315 317 315 310 301 300 304 300 297 296 296 296 295 295 295 294 293 290 287 285 283 282 282 281 280 279 279 278 277 277 276 276 275 273 272 271 270 270 269 269 268 267 266 265 263 263
337 333 328 323 319 315 309 302 302 304 301 299 298 297 297 296 297 297 296 294 291 288 286 285 285 286 286 285 283 282 280 280 279 279 278 277 275 274 273 271 270 269 269 268 268 266 265 264 263
337 333 329 325 321 318 314 308 307 306 303 303 303 301 300 300 301 300 299 298 296 293 291 290 291 291 291 291 289 287 285 284 282 281 279 278 277 275 274 272 271 269 268 267 266 266 264 264 263
337 334 330 326 323 321 318 313 312 309 309 309 307 305 304 304 304 303 303 302 300 298 296 295 295 295 294 293 291 290 288 286 285 283 280 278 277 275 273 272 270 268 267 265 264 263 262 262 261
333 330 327 324 321 318 317 317 316 313 313 311 309 308 307 306 306 307 306 305 302 301 299 298 297 296 295 294 292 290 288 286 284 282 279 277 274 271 270 268 267 265 264 262 261 260 259 258 258
329 327 324 322 322 322 322 321 315 316 314 312 311 310 309 309 310 310 308 305 303 302 301 299 298 296 295 293 291 289 287 285 282 278 275 272 270 267 265 264 263 262 261 260 259 258 256 255 255
329 327 325 324 325 323 321 317 315 316 315 314 313 311 311 312 311 310 308 306 304 303 301 300 298 296 294 292 290 288 287 284 280 276 270 265 263 262 261 260 261 261 261 260 259 257 255 253 253
328 327 325 323 321 318 319 319 317 316 314 311 310 310 311 311 311 309 307 306 304 303 302 300 298 296 294 291 289 287 286 284 281 276 269 263 261 260 260 260 262 263 262 262 260 257 254 253 252
328 326 323 321 319 318 321 319 315 313 310 309 308 310 311 311 309 307 305 304 303 303 302 302 301 299 296 293 289 286 283 280 278 274 270 264 259 258 260 261 261 261 261 260 259 256 253 252 252
328 326 324 323 321 318 317 318 315 311 308 308 310 311 311 309 308 306 305 304 304 304 305 306 307 306 303 298 293 287 281 274 271 268 266 262 257 254 254 257 258 259 259 257 256 252 249 250 251
329 326 324 323 320 319 317 315 313 308 307 309 311 311 309 308 306 304 303 303 304 307 310 312 313 313 311 307 301 292 282 274 269 266 264 261 256 252 250 249 253 255 253 253 251 249 250 253 255
329 325 323 321 319 317 314 314 312 308 309 309 309 306 303 303 302 302 303 304 308 312 316 319 322 323 322 318 312 304 295 285 276 270 267 263 258 253 250 248 250 250 249 247 248 249 252 255 258
Height
5833 5833 5834 5836 5838 5839 5838 5839 5839 5840 5841 5843 5845 5846 5847 5847 5850 5853 5852 5851 5852 5852 5852 5853 5852 5852 5852 5851 5851 5850 5849 5849 5848 5848 5848 5848 5848 5848 5848 5848 5848 5848 5849 5848 5848 5848 5849 5849 5849
5831 5832 5833 5835 5836 5836 5837 5837 5837 5838 5840 5841 5842 5843 5843 5844 5847 5848 5848 5848 5848 5849 5849 5849 5848 5848 5847 5847 5846 5846 5845 5845 5845 5845 5845 5845 5845 5845 5845 5845 5845 5845 5845 5845 5845 5845 5845 5845 5845
5830 5831 5833 5833 5833 5833 5834 5834 5835 5837 5837 5838 5839 5840 5841 5842 5844 5845 5844 5844 5844 5845 5845 5844 5844 5843 5843 5842 5842 5841 5841 5841 5841 5841 5841 5841 5841 5841 5841 5841 5841 5841 5841 5841 5841 5841 5841 5841 5841
5830 5831 5832 5832 5831 5832 5832 5833 5834 5835 5836 5836 5837 5838 5838 5839 5840 5840 5840 5840 5840 5840 5841 5839 5839 5838 5838 5838 5837 5837 5837 5837 5837 5836 5836 5836 5836 5836 5837 5837 5837 5837 5837 5837 5837 5837 5837 5837 5837
5829 5830 5831 5831 5830 5831 5831 5832 5833 5833 5834 5834 5835 5834 5834 5836 5835 5836 5835 5835 5835 5835 5836 5834 5834 5834 5833 5833 5832 5832 5832 5832 5832 5832 5832 5831 5832 5832 5832 5832 5832 5832 5832 5832 5832 5833 5833 5833 5833
5829 5830 5830 5829 5829 5829 5830 5830 5831 5832 5832 5832 5832 5832 5830 5832 5832 5832 5831 5831 5830 5830 5830 5830 5828 5828 5828 5828 5827 5827 5827 5826 5826 5826 5826 5826 5826 5826 5826 5827 5827 5827 5827 5827 5827 5828 5828 5828 5829
5829 5829 5828 5828 5828 5829 5829 5829 5829 5830 5830 5829 5830 5829 5826 5829 5829 5828 5827 5826 5826 5825 5824 5824 5824 5823 5822 5822 5822 5821 5821 5821 5820 5820 5820 5820 5820 5820 5820 5821 5821 5821 5821 5822 5822 5822 5823 5823 5824
5826 5827 5827 5827 5827 5827 5828 5828 5828 5828 5828 5828 5827 5826 5823 5825 5825 5823 5822 5821 5820 5820 5819 5818 5818 5818 5818 5817 5816 5815 5815 5815 5814 5814 5814 5814 5814 5814 5814 5815 5815 5815 5816 5816 5816 5817 5818 5819 5820
5823 5825 5824 5824 5825 5825 5825 5825 5825 5825 5824 5823 5823 5821 5819 5819 5819 5819 5817 5815 5814 5814 5813 5812 5811 5811 5811 5811 5811 5810 5809 5809 5808 5808 5808 5808 5808 5808 5808 5809 5809 5809 5810 5811 5811 5812 5812 5813 5815
5821 5821 5821 5822 5821 5821 5821 5821 5821 5820 5819 5818 5816 5815 5814 5816 5814 5813 5811 5809 5808 5808 5808 5806 5806 5805 5804 5804 5804 5804 5803 5803 5802 5802 5802 5802 5802 5802 5802 5803 5803 5803 5804 5805 5805 5806 5807 5807 5808
5819 5819 5819 5818 5818 5818 5817 5816 5815 5815 5814 5811 5811 5811 5810 5809 5809 5807 5806 5804 5802 5802 5801 5800 5800 5799 5798 5798 5797 5797 5797 5796 5796 5796 5796 5796 5796 5796 5796 5796 5797 5797 5797 5798 5799 5799 5800 5800 5801
5818 5817 5816 5816 5815 5815 5814 5812 5811 5808 5808 5807 5807 5806 5805 5804 5803 5802 5801 5799 5797 5796 5796 5794 5793 5792 5791 5790 5790 5789 5789 5789 5789 5789 5789 5789 5789 5789 5788 5789 5789 5789 5790 5790 5791 5792 5792 5792 5793
5816 5815 5814 5813 5813 5812 5811 5808 5806 5804 5804 5803 5802 5801 5800 5799 5799 5797 5796 5794 5791 5790 5789 5788 5786 5785 5784 5783 5782 5782 5782 5781 5781 5781 5780 5780 5780 5780 5780 5780 5780 5780 5781 5781 5782 5782 5782 5782 5783
5814 5812 5811 5810 5810 5809 5807 5803 5801 5800 5801 5798 5797 5796 5795 5795 5793 5791 5789 5788 5785 5783 5781 5780 5779 5777 5776 5775 5774 5774 5773 5773 5772 5772 5771 5771 5771 5770 5770 5770 5770 5770 5771 5771 5772 5772 5772 5772 5773
5811 5809 5807 5807 5805 5804 5802 5798 5794 5796 5796 5793 5792 5791 5790 5788 5787 5784 5782 5780 5778 5775 5774 5772 5771 5769 5767 5766 5765 5764 5763 5762 5762 5761 5761 5760 5760 5759 5759 5759 5759 5759 5759 5760 5760 5761 5761 5762 5762
5807 5806 5802 5801 5802 5800 5800 5794 5789 5789 5789 5788 5786 5785 5784 5782 5780 5778 5775 5773 5771 5768 5766 5764 5762 5760 5758 5756 5755 5753 5752 5751 5750 5749 5749 5748 5747 5746 5746 5746 5745 5745 5746 5747 5747 5748 5749 5749 5750
5803 5801 5799 5796 5795 5796 5794 5790 5785 5784 5783 5782 5780 5779 5777 5775 5773 5771 5768 5765 5762 5759 5756 5754 5751 5749 5747 5745 5743 5741 5739 5738 5736 5735 5734 5734 5733 5732 5732 5732 5731 5731 5731 5732 5733 5733 5734 5736 5737
5801 5798 5796 5795 5792 5791 5789 5785 5782 5782 5779 5777 5775 5773 5771 5768 5766 5763 5760 5756 5753 5749 5746 5742 5739 5737 5734 5731 5729 5726 5724 5722 5721 5719 5718 5718 5717 5716 5716 5716 5716 5716 5716 5716 5717 5718 5719 5721 5722
5798 5796 5794 5792 5790 5789 5786 5782 5778 5778 5776 5773 5770 5767 5764 5761 5757 5754 5750 5746 5742 5738 5734 5731 5727 5724 5720 5717 5714 5712 5709 5707 5705 5703 5702 5700 5700 5700 5700 5700 5700 5700 5701 5701 5701 5702 5704 5705 5706
5796 5795 5793 5791 5788 5786 5784 5779 5775 5773 5770 5766 5763 5759 5755 5751 5747 5743 5738 5734 5730 5726 5722 5718 5714 5709 5705 5701 5698 5696 5693 5691 5689 5686 5685 5683 5682 5682 5683 5683 5683 5683 5684 5685 5685 5686 5688 5689 5690
5795 5793 5790 5788 5785 5782 5778 5775 5771 5767 5763 5759 5754 5750 5745 5740 5736 5731 5726 5721 5717 5712 5707 5702 5698 5693 5688 5684 5680 5676 5674 5672 5670 5667 5665 5664 5663 5663 5663 5664 5665 5665 5667 5668 5669 5670 5671 5673 5674
5793 5790 5787 5783 5779 5776 5772 5766 5762 5758 5754 5750 5744 5739 5734 5728 5723 5717 5712 5707 5701 5695 5690 5684 5678 5673 5667 5662 5658 5654 5651 5649 5647 5644 5642 5642 5642 5641 5641 5643 5644 5645 5647 5649 5651 5652 5654 5655 5657
5790 5786 5782 5778 5773 5769 5763 5757 5751 5746 5742 5737 5732 5726 5721 5715 5708 5702 5696 5689 5683 5676 5670 5664 5657 5651 5644 5638 5632 5628 5625 5622 5620 5618 5616 5616 5618 5618 5619 5621 5622 5623 5626 5628 5631 5633 5635 5637 5639
5785 5782 5777 5771 5765 5759 5753 5748 5740 5734 5728 5723 5717 5711 5705 5699 5692 5685 5678 5670 5663 5656 5649 5641 5634 5626 5619 5612 5606 5601 5597 5595 5593 5592 5590 5589 5591 5592 5595 5598 5599 5601 5604 5608 5611 5614 5617 5619 5622
5780 5775 5770 5764 5757 5752 5746 5740 5734 5724 5717 5710 5703 5696 5689 5682 5674 5666 5658 5649 5641 5633 5625 5616 5609 5602 5594 5586 5580 5574 5570 5568 5567 5567 5565 5565 5566 5567 5571 5575 5578 5581 5584 5589 5592 5595 5598 5601 5604
5774 5768 5763 5758 5752 5747 5739 5730 5724 5716 5707 5698 5689 5681 5674 5665 5656 5647 5637 5627 5618 5609 5601 5592 5584 5577 5571 5563 5558 5552 5548 5544 5544 5544 5543 5544 5545 5547 5551 5556 5560 5562 5567 5571 5575 5578 5581 5584 5587
5768 5763 5756 5751 5744 5737 5729 5719 5713 5705 5696 5686 5676 5667 5658 5648 5638 5628 5617 5607 5597 5588 5580 5571 5562 5555 5549 5542 5535 5531 5526 5523 5522 5523 5524 5525 5527 5530 5535 5539 5543 5546 5551 5555 5559 5562 5564 5567 5570
5763 5756 5750 5742 5735 5728 5723 5711 5701 5690 5680 5670 5660 5650 5640 5629 5618 5607 5597 5587 5578 5570 5563 5555 5545 5535 5525 5517 5509 5505 5503 5502 5502 5503 5505 5507 5510 5514 5519 5524 5528 5532 5536 5541 5544 5547 5549 5552 5554
5755 5748 5741 5734 5725 5716 5709 5703 5688 5674 5662 5653 5644 5633 5621 5609 5599 5589 5580 5572 5564 5557 5549 5540 5530 5518 5506 5495 5488 5484 5483 5483 5484 5486 5488 5490 5494 5498 5502 5508 5513 5518 5522 5526 5530 5532 5535 5537 5540
5748 5741 5733 5726 5718 5708 5697 5693 5672 5658 5645 5635 5626 5616 5605 5594 5584 5574 5566 5559 5553 5546 5538 5528 5517 5505 5493 5484 5477 5473 5471 5471 5471 5472 5473 5475 5478 5483 5487 5492 5498 5503 5508 5512 5516 5518 5521 5524 5527